Weather History for Harrison, AR

Change the Weather History Date:

Thursday, January 3, 2013

  Actual Average Record
Temperature  
Mean Temperature 33 °F 36 °F  
Max Temperature 42 °F 46 °F 73 °F (2004)
Min Temperature 24 °F 26 °F -7 °F (1928)
Degree Days  
Heating Degree Days 32 29  
Month to date heating degree days 104 87  
Since 1 July heating degree days 1512 1686  
Cooling Degree Days 0 0  
Month to date cooling degree days 0 0  
Year to date cooling degree days 0 0  
Moisture  
Dew Point 23 °F    
Average Humidity 70    
Maximum Humidity 88    
Minimum Humidity 51    
Precipitation  
Precipitation 0.00 in 0.09 in 1.02 in (2000)
Month to date precipitation T 0.25  
Year to date precipitation T 0.25  
Snow  
Snow 0.00 in 0.10 in 3.70 in (1987)
Month to date snowfall T 0.3  
Since 1 July snowfall 0.3 2.1  
Snow Depth 0.00 in    
Sea Level Pressure  
Sea Level Pressure 30.38 in    
Wind  
Wind Speed 5 mph (WNW)    
Max Wind Speed 12 mph    
Max Gust Speed 15 mph    
Visibility 10 miles    
Events      
T = Trace of Precipitation, MM = Missing Value Source: NWS Daily Summary

Daily Weather History Graph

Daily Weather History Graph

Search for Another Location

Airport:

Trip Planner

Search our weather history database for the weather conditions in past years. The results will help you decide how hot, cold, wet, or windy it might be!

Date:

Astronomy

Jan. 03, 2013 Rise Set
Actual Time 7:24 AM CST 5:10 PM CST
Civil Twilight 6:55 AM CST 5:39 PM CST
Nautical Twilight 6:23 AM CST 6:11 PM CST
Astronomical Twilight 5:52 AM CST 6:42 PM CST
Moon 11:33 PM CST (1/3) 10:47 AM CST (1/3)
Length of Visible Light 10h 43m
Length of Day
9h 46m
Waning Gibbous, 65% of the Moon is Illuminated
Jan 3
Waning Gibbous
Jan 4
Last Quarter
Jan 11
New
Jan 18
First Quarter
Jan 26
Full

Hourly Weather History & Observations

Time (CST) Temp. Windchill Dew Point Humidity Pressure Visibility Wind Dir Wind Speed Gust Speed Precip Events Conditions
12:53 AM 26.1 °F 21.9 °F 19.9 °F 78% 30.27 in 10.0 mi West 3.5 mph - N/A   Clear
1:53 AM 26.1 °F 19.4 °F 19.9 °F 78% 30.28 in 9.0 mi West 5.8 mph - N/A   Clear
2:53 AM 26.1 °F 18.4 °F 21.0 °F 81% 30.30 in 9.0 mi West 6.9 mph - N/A   Clear
3:53 AM 26.1 °F 18.4 °F 21.0 °F 81% 30.31 in 9.0 mi WNW 6.9 mph - N/A   Clear
4:53 AM 25.0 °F 19.3 °F 21.0 °F 85% 30.32 in 9.0 mi WNW 4.6 mph - N/A   Clear
5:53 AM 25.0 °F 16.3 °F 21.0 °F 85% 30.35 in 9.0 mi WNW 8.1 mph - N/A   Clear
6:53 AM 24.1 °F 17.0 °F 21.0 °F 88% 30.37 in 8.0 mi WNW 5.8 mph - N/A   Clear
7:53 AM 25.0 °F 19.3 °F 21.9 °F 88% 30.38 in 7.0 mi West 4.6 mph - N/A   Clear
8:53 AM 28.9 °F 25.2 °F 24.1 °F 82% 30.40 in 9.0 mi WNW 3.5 mph - N/A   Clear
9:53 AM 32.0 °F 24.8 °F 26.1 °F 79% 30.43 in 10.0 mi NW 8.1 mph - N/A   Clear
10:53 AM 35.1 °F 28.6 °F 26.1 °F 70% 30.44 in 10.0 mi NNW 8.1 mph - N/A   Clear
11:53 AM 37.9 °F 30.9 °F 24.1 °F 57% 30.42 in 10.0 mi NNW 10.4 mph - N/A   Clear
12:53 PM 39.9 °F 35.8 °F 24.1 °F 53% 30.39 in 10.0 mi Variable 5.8 mph - N/A   Clear
1:53 PM 41.0 °F 36.4 °F 24.1 °F 51% 30.37 in 10.0 mi WNW 6.9 mph - N/A   Clear
2:53 PM 41.0 °F 37.1 °F 24.1 °F 51% 30.37 in 10.0 mi NW 5.8 mph - N/A   Clear
3:53 PM 39.9 °F 35.8 °F 24.1 °F 53% 30.38 in 10.0 mi WNW 5.8 mph - N/A   Clear
4:53 PM 37.0 °F 34.5 °F 24.1 °F 59% 30.40 in 10.0 mi NNW 3.5 mph - N/A   Clear
5:53 PM 35.1 °F - 24.1 °F 64% 30.40 in 10.0 mi Calm Calm - N/A   Clear
6:53 PM 30.9 °F - 23.0 °F 72% 30.42 in 10.0 mi Calm Calm - N/A   Clear
7:53 PM 33.1 °F 30.0 °F 21.9 °F 64% 30.44 in 10.0 mi SW 3.5 mph - N/A   Clear
8:53 PM 32.0 °F 27.5 °F 23.0 °F 69% 30.43 in 10.0 mi West 4.6 mph - N/A   Overcast
9:53 PM 33.1 °F 30.0 °F 21.9 °F 64% 30.43 in 10.0 mi WNW 3.5 mph - N/A   Mostly Cloudy
10:53 PM 30.9 °F 26.2 °F 21.9 °F 69% 30.43 in 10.0 mi WSW 4.6 mph - N/A   Scattered Clouds
11:53 PM 30.0 °F - 21.9 °F 72% 30.42 in 10.0 mi Calm Calm - N/A   Clear